Flag for Marshall Islands Weather past 2 weeks in Majuro, Marshall Islands

Now
85 °F

Cloudy.


Feels Like: 95 °F
Forecast: 82 / 85 °F
Wind: 13 mph from Northeast

Location: Majuro Atoll

Current Time: May 29, 2015 at 4:51:34 PM

Latest Report: May 29, 2015 at 3:52 PM


Visibility: 15 mi

Pressure: 29.82 "Hg

Humidity: 76%

Dew point: 77 °F

Location of MajuroLocation

Historic Weather in Majuro — Graph

°F

Majuro temperature yesterday

Maximum temperature yesterday: 86 °F (at 11:51 AM)
Minimum temperature yesterday: 79 °F (at 8:52 PM)
Average temperature yesterday: 82 °F

Past Weeks' High & Low Weather Summary

 TemperatureHumidityPressure
High87 °F (May 25, 1:55 PM)95% (May 19, 3:51 AM)29.95 "Hg (May 19, 3:51 AM)
Low76 °F (May 19, 3:51 AM)72% (May 20, 2:53 PM)29.76 "Hg (May 16, 3:52 AM)
Average82 °F84%29.85 "Hg
* Reported May 14 2:52 PM — May 29 2:57 PM, Majuro, Weather by CustomWeather, © 2015

Note: Actual official high and low records may vary slightly from our data, if they occured in-between our weather recording intervals... More about our weather records

Advertising

Majuro weather history for previous 24 hours

 ConditionsComfort  
Time TempWeatherWind HumidityBarometerVisibility
2:57 PM
Fri, May 29
86 °FCloudy.10 mph78%29.83 "Hg15 mi
1:52 PM87 °FMore clouds than sun.9 mph73%29.85 "Hg15 mi
12:55 PM87 °FOvercast.12 mph73%29.87 "Hg15 mi
11:54 AM87 °FOvercast.10 mph74%29.90 "Hg15 mi
10:55 AM86 °FOvercast.9 mph75%29.91 "Hg15 mi
9:50 AM85 °FOvercast.13 mph76%29.92 "Hg15 mi
8:55 AM85 °FMore clouds than sun.12 mph78%29.91 "Hg15 mi
7:57 AM84 °FMore clouds than sun.10 mph77%29.90 "Hg15 mi
6:56 AM83 °FMostly cloudy.9 mph80%29.88 "Hg15 mi
5:55 AM82 °FPassing clouds.7 mph80%29.85 "Hg15 mi
4:50 AM82 °FPassing clouds.6 mph80%29.83 "Hg15 mi
3:50 AM82 °FPartly cloudy.8 mph81%29.83 "Hg15 mi
2:52 AM83 °FOvercast.8 mph83%29.83 "Hg15 mi
1:50 AM83 °FOvercast.8 mph81%29.85 "Hg15 mi
12:50 AM83 °FOvercast.12 mph80%29.86 "Hg15 mi
11:50 PM
Thu, May 28
81 °FOvercast.9 mph86%29.88 "Hg15 mi
10:57 PM83 °FOvercast.12 mph80%29.88 "Hg15 mi
9:54 PM81 °FOvercast.6 mph89%29.88 "Hg15 mi
8:52 PM79 °FOvercast.7 mph91%29.88 "Hg15 mi
7:53 PM82 °FOvercast.8 mph85%29.85 "Hg15 mi
6:50 PM82 °FCloudy.9 mph82%29.83 "Hg15 mi
5:52 PM82 °FCloudy.10 mph82%29.81 "Hg15 mi
4:50 PM82 °FCloudy.9 mph85%29.80 "Hg15 mi
Weather by CustomWeather, © 2015

See weather overviewHow to use our weather pages